When you browse on this site, cookies collect data to enhance your experience and personalize the content and advertising you see.
Visit our Privacy Policy to learn more. By continuing to use the site, you agree to this use of cookies and data.
  • In Hungary
  • List of Countries
  • For 7 days
  • Water Temperature
  • Weather Map
  • News
  • Weather Widgets
  • user-avatar
    Login

    Hourly Weather Novaya Selya

    Today, 19 October, Saturday

    Time Temperature Precipitation Wind Pressure Humidity
    00:00 +9°C° 0 mm 2 mps 745 mmHg 88%
    01:00 +9°C° 0 mm 2 mps 746 mmHg 89%
    02:00 +10°C° 0 mm 1 mps 746 mmHg 90%
    03:00 +9°C° 0 mm 1 mps 747 mmHg 92%
    04:00 +9°C° 0 mm 1 mps 747 mmHg 93%
    05:00 +9°C° 0 mm 1 mps 747 mmHg 94%
    06:00 +8°C° 0 mm 1 mps 747 mmHg 96%
    07:00 +9°C° 0 mm 1 mps 748 mmHg 94%
    08:00 +9°C° 0 mm 2 mps 748 mmHg 92%
    09:00 +9°C° 0 mm 2 mps 749 mmHg 90%
    10:00 +9°C° 0 mm 2 mps 749 mmHg 88%
    11:00 +9°C° 0 mm 2 mps 749 mmHg 87%
    12:00 +9°C° 0 mm 2 mps 749 mmHg 85%
    13:00 +9°C° 0 mm 2 mps 750 mmHg 85%
    14:00 +9°C° 0 mm 2 mps 750 mmHg 84%
    15:00 +9°C° 0 mm 2 mps 750 mmHg 84%
    16:00 +9°C° 0 mm 2 mps 750 mmHg 84%
    17:00 +8°C° 0 mm 2 mps 751 mmHg 84%
    18:00 +8°C° 0 mm 2 mps 751 mmHg 84%
    19:00 +9°C° 0 mm 1 mps 751 mmHg 84%
    20:00 +9°C° 0 mm 1 mps 752 mmHg 83%
    21:00 +9°C° 0 mm 1 mps 752 mmHg 83%
    22:00 +9°C° 0 mm 1 mps 752 mmHg 83%
    23:00 +8°C° 0 mm 1 mps 752 mmHg 84%

    Tomorrow, 20 October, Sunday

    Time Temperature Precipitation Wind Pressure Humidity
    00:00 +8°C° 0 mm 1 mps 752 mmHg 84%
    01:00 +8°C° 0 mm 1 mps 753 mmHg 84%
    02:00 +8°C° 0 mm 1 mps 753 mmHg 84%
    03:00 +8°C° 0 mm 1 mps 753 mmHg 83%
    04:00 +8°C° 0 mm 1 mps 753 mmHg 84%
    05:00 +8°C° 0 mm 1 mps 753 mmHg 84%
    06:00 +8°C° 0 mm 1 mps 753 mmHg 84%
    07:00 +8°C° 0 mm 1 mps 753 mmHg 82%
    08:00 +9°C° 0 mm 1 mps 754 mmHg 80%
    09:00 +9°C° 0 mm 1 mps 754 mmHg 78%
    10:00 +9°C° 0 mm 2 mps 754 mmHg 75%
    11:00 +10°C° 0 mm 2 mps 753 mmHg 71%
    12:00 +12°C° 0 mm 2 mps 753 mmHg 68%
    13:00 +12°C° 0 mm 2 mps 753 mmHg 68%
    14:00 +13°C° 0 mm 2 mps 753 mmHg 68%
    15:00 +12°C° 0 mm 3 mps 753 mmHg 69%
    16:00 +12°C° 0 mm 2 mps 753 mmHg 74%
    17:00 +10°C° 0 mm 2 mps 753 mmHg 80%
    18:00 +9°C° 0 mm 2 mps 753 mmHg 86%
    19:00 +8°C° 0 mm 2 mps 753 mmHg 87%
    20:00 +8°C° 0 mm 2 mps 753 mmHg 88%
    21:00 +8°C° 0 mm 3 mps 753 mmHg 89%
    22:00 +8°C° 0 mm 3 mps 753 mmHg 90%
    23:00 +8°C° 0 mm 3 mps 753 mmHg 91%

    Day after tomorrow, 21 October, Monday

    Time Temperature Precipitation Wind Pressure Humidity
    00:00 +7°C° 0 mm 3 mps 753 mmHg 92%
    01:00 +7°C° 0 mm 3 mps 753 mmHg 92%
    02:00 +7°C° 0 mm 3 mps 753 mmHg 93%
    03:00 +7°C° 0 mm 3 mps 753 mmHg 93%
    04:00 +7°C° 0 mm 3 mps 753 mmHg 93%
    05:00 +7°C° 0 mm 3 mps 753 mmHg 94%
    06:00 +5°C° 0 mm 3 mps 752 mmHg 94%
    07:00 +7°C° 0 mm 3 mps 752 mmHg 91%
    08:00 +7°C° 0 mm 4 mps 752 mmHg 89%
    09:00 +8°C° 0 mm 4 mps 752 mmHg 86%
    10:00 +11°C° 0 mm 4 mps 752 mmHg 82%
    11:00 +12°C° 0 mm 4 mps 752 mmHg 77%
    12:00 +13°C° 0 mm 5 mps 752 mmHg 73%
    13:00 +14°C° 0 mm 5 mps 751 mmHg 72%
    14:00 +14°C° 0 mm 5 mps 751 mmHg 72%
    15:00 +14°C° 0 mm 5 mps 751 mmHg 71%
    16:00 +13°C° 0 mm 4 mps 750 mmHg 76%
    17:00 +12°C° 0 mm 4 mps 750 mmHg 81%
    18:00 +11°C° 0 mm 4 mps 750 mmHg 86%
    19:00 +10°C° 0 mm 5 mps 750 mmHg 86%
    20:00 +10°C° 0 mm 5 mps 750 mmHg 86%
    21:00 +10°C° 0 mm 5 mps 749 mmHg 87%
    22:00 +10°C° 0 mm 5 mps 749 mmHg 86%
    23:00 +10°C° 0 mm 6 mps 749 mmHg 85%

    22 October, Tuesday

    Time Temperature Precipitation Wind Pressure Humidity
    00:00 +10°C° 0 mm 6 mps 748 mmHg 85%
    01:00 +10°C° 0 mm 6 mps 748 mmHg 84%
    02:00 +9°C° 0 mm 6 mps 748 mmHg 84%
    03:00 +9°C° 0 mm 5 mps 747 mmHg 84%
    04:00 +9°C° 0 mm 5 mps 747 mmHg 84%
    05:00 +9°C° 0 mm 5 mps 747 mmHg 84%
    06:00 +9°C° 0 mm 5 mps 747 mmHg 84%
    07:00 +9°C° 0 mm 5 mps 747 mmHg 84%
    08:00 +10°C° 0 mm 5 mps 747 mmHg 84%
    09:00 +10°C° 0 mm 5 mps 746 mmHg 84%
    10:00 +10°C° 0 mm 5 mps 746 mmHg 84%
    11:00 +10°C° 0 mm 5 mps 746 mmHg 84%
    12:00 +12°C° 0 mm 4 mps 746 mmHg 84%
    13:00 +11°C° 0.9 mm 4 mps 746 mmHg 87%
    14:00 +11°C° 0.9 mm 3 mps 746 mmHg 89%
    15:00 +11°C° 0.9 mm 3 mps 746 mmHg 91%
    16:00 +11°C° 0.8 mm 3 mps 746 mmHg 92%
    17:00 +12°C° 0.8 mm 2 mps 746 mmHg 94%
    18:00 +12°C° 0.8 mm 2 mps 746 mmHg 95%
    19:00 +12°C° 0.4 mm 2 mps 746 mmHg 95%
    20:00 +12°C° 0.4 mm 2 mps 746 mmHg 96%
    21:00 +10°C° 0.4 mm 2 mps 746 mmHg 96%
    22:00 +11°C° 0.5 mm 1 mps 745 mmHg 97%
    23:00 +11°C° 0.5 mm 1 mps 745 mmHg 97%

    23 October, Wednesday

    Time Temperature Precipitation Wind Pressure Humidity
    00:00 +11°C° 0.5 mm 1 mps 745 mmHg 98%
    01:00 +11°C° 0.2 mm 1 mps 746 mmHg 97%
    02:00 +11°C° 0.2 mm 1 mps 746 mmHg 97%
    03:00 +10°C° 0.2 mm 1 mps 746 mmHg 97%
    04:00 +10°C° 0 mm 1 mps 746 mmHg 95%
    05:00 +8°C° 0 mm 2 mps 747 mmHg 93%
    06:00 +8°C° 0 mm 3 mps 747 mmHg 92%
    07:00 +8°C° 0 mm 2 mps 747 mmHg 89%
    08:00 +8°C° 0 mm 2 mps 747 mmHg 85%
    09:00 +8°C° 0 mm 2 mps 748 mmHg 82%
    10:00 +9°C° 0 mm 1 mps 748 mmHg 76%
    11:00 +10°C° 0 mm 1 mps 748 mmHg 71%
    12:00 +11°C° 0 mm 1 mps 748 mmHg 65%
    13:00 +11°C° 0 mm 1 mps 748 mmHg 65%
    14:00 +10°C° 0 mm 0 mps 748 mmHg 64%
    15:00 +10°C° 0 mm 0 mps 748 mmHg 63%
    16:00 +9°C° 0 mm 0 mps 748 mmHg 68%
    17:00 +8°C° 0 mm 0 mps 748 mmHg 73%
    18:00 +8°C° 0 mm 0 mps 748 mmHg 77%
    19:00 +8°C° 0 mm 1 mps 748 mmHg 80%
    20:00 +8°C° 0 mm 1 mps 748 mmHg 83%
    21:00 +7°C° 0 mm 2 mps 748 mmHg 86%
    22:00 +7°C° 0 mm 2 mps 748 mmHg 89%
    23:00 +7°C° 0 mm 2 mps 747 mmHg 91%

    24 October, Thursday

    Time Temperature Precipitation Wind Pressure Humidity
    00:00 +7°C° 0 mm 2 mps 747 mmHg 93%
    01:00 +7°C° 0 mm 2 mps 747 mmHg 93%
    02:00 +8°C° 0 mm 3 mps 747 mmHg 93%
    03:00 +8°C° 0 mm 3 mps 747 mmHg 93%
    04:00 +9°C° 0.1 mm 3 mps 747 mmHg 94%
    05:00 +9°C° 0.1 mm 3 mps 747 mmHg 94%
    06:00 +9°C° 0.1 mm 3 mps 746 mmHg 95%
    07:00 +9°C° 0 mm 3 mps 747 mmHg 95%
    08:00 +10°C° 0 mm 3 mps 747 mmHg 94%
    09:00 +10°C° 0 mm 3 mps 747 mmHg 93%
    10:00 +10°C° 0 mm 3 mps 747 mmHg 92%
    11:00 +10°C° 0 mm 3 mps 748 mmHg 90%
    12:00 +10°C° 0 mm 3 mps 748 mmHg 88%
    13:00 +10°C° 0 mm 3 mps 748 mmHg 87%
    14:00 +10°C° 0 mm 3 mps 748 mmHg 85%
    15:00 +10°C° 0 mm 3 mps 748 mmHg 84%
    16:00 +9°C° 0 mm 2 mps 748 mmHg 86%
    17:00 +8°C° 0 mm 2 mps 749 mmHg 88%
    18:00 +7°C° 0 mm 2 mps 749 mmHg 90%
    19:00 +8°C° 0 mm 1 mps 749 mmHg 90%
    20:00 +7°C° 0 mm 1 mps 749 mmHg 91%
    21:00 +6°C° 0 mm 0 mps 750 mmHg 91%
    22:00 +6°C° 0 mm 0 mps 750 mmHg 90%
    23:00 +6°C° 0 mm 0 mps 750 mmHg 90%
    Show more